When you browse on this site, cookies collect data to enhance your experience and personalize the content and advertising you see.
Visit our Privacy Policy to learn more. By continuing to use the site, you agree to this use of cookies and data.
  • In Hungary
  • List of Countries
  • For 7 days
  • Water Temperature
  • Weather Map
  • News
  • Weather Widgets
  • user-avatar
    Login

    Hourly Weather Cienega

    Today, 30 March, Monday

    Time Temperature Precipitation Wind Pressure Humidity
    00:00 +14°C° 0.1 mm 1 mps 569 mmHg 94%
    01:00 +13°C° 0.1 mm 0 mps 569 mmHg 95%
    02:00 +13°C° 0 mm 0 mps 569 mmHg 95%
    03:00 +13°C° 0 mm 0 mps 569 mmHg 96%
    04:00 +13°C° 0 mm 0 mps 569 mmHg 96%
    05:00 +13°C° 0 mm 0 mps 569 mmHg 95%
    06:00 +13°C° 0 mm 0 mps 570 mmHg 93%
    07:00 +14°C° 0 mm 0 mps 570 mmHg 92%
    08:00 +16°C° 0.2 mm 1 mps 571 mmHg 88%
    09:00 +18°C° 0.2 mm 1 mps 572 mmHg 84%
    10:00 +19°C° 0.2 mm 1 mps 572 mmHg 79%
    11:00 +20°C° 0.5 mm 1 mps 572 mmHg 78%
    12:00 +19°C° 0.5 mm 2 mps 572 mmHg 76%
    13:00 +20°C° 0.5 mm 2 mps 571 mmHg 74%
    14:00 +19°C° 0.9 mm 2 mps 571 mmHg 77%
    15:00 +19°C° 0.9 mm 2 mps 570 mmHg 80%
    16:00 +19°C° 0.9 mm 1 mps 569 mmHg 83%
    17:00 +18°C° 0.5 mm 1 mps 569 mmHg 88%
    18:00 +16°C° 0.5 mm 1 mps 569 mmHg 92%
    19:00 +15°C° 0.5 mm 1 mps 568 mmHg 97%
    20:00 +15°C° 0.1 mm 1 mps 569 mmHg 97%
    21:00 +14°C° 0.1 mm 0 mps 569 mmHg 97%
    22:00 +13°C° 0.1 mm 0 mps 569 mmHg 97%
    23:00 +13°C° 0 mm 0 mps 569 mmHg 97%

    Tomorrow, 31 March, Tuesday

    Time Temperature Precipitation Wind Pressure Humidity
    00:00 +13°C° 0 mm 0 mps 569 mmHg 96%
    01:00 +13°C° 0 mm 0 mps 568 mmHg 96%
    02:00 +13°C° 0 mm 0 mps 568 mmHg 96%
    03:00 +13°C° 0 mm 0 mps 568 mmHg 95%
    04:00 +13°C° 0 mm 0 mps 568 mmHg 95%
    05:00 +13°C° 0.1 mm 0 mps 569 mmHg 95%
    06:00 +13°C° 0.1 mm 0 mps 569 mmHg 94%
    07:00 +15°C° 0.1 mm 1 mps 569 mmHg 94%
    08:00 +16°C° 0.3 mm 1 mps 570 mmHg 89%
    09:00 +18°C° 0.3 mm 1 mps 571 mmHg 84%
    10:00 +18°C° 0.3 mm 2 mps 572 mmHg 80%
    11:00 +18°C° 0.7 mm 2 mps 571 mmHg 81%
    12:00 +18°C° 0.7 mm 2 mps 570 mmHg 82%
    13:00 +19°C° 0.7 mm 2 mps 569 mmHg 82%
    14:00 +18°C° 0.6 mm 2 mps 569 mmHg 83%
    15:00 +19°C° 0.6 mm 1 mps 569 mmHg 84%
    16:00 +19°C° 0.6 mm 1 mps 568 mmHg 84%
    17:00 +18°C° 0.5 mm 1 mps 568 mmHg 88%
    18:00 +16°C° 0.5 mm 1 mps 568 mmHg 92%
    19:00 +15°C° 0.5 mm 1 mps 568 mmHg 97%
    20:00 +15°C° 0.3 mm 1 mps 568 mmHg 96%
    21:00 +14°C° 0.3 mm 0 mps 569 mmHg 96%
    22:00 +14°C° 0.3 mm 0 mps 569 mmHg 96%
    23:00 +14°C° 0.1 mm 0 mps 569 mmHg 95%

    Day after tomorrow, 1 April, Wednesday

    Time Temperature Precipitation Wind Pressure Humidity
    00:00 +13°C° 0.1 mm 0 mps 568 mmHg 95%
    01:00 +13°C° 0.1 mm 0 mps 568 mmHg 94%
    02:00 +13°C° 0.1 mm 0 mps 568 mmHg 94%
    03:00 +13°C° 0.1 mm 0 mps 568 mmHg 94%
    04:00 +13°C° 0.1 mm 0 mps 567 mmHg 93%
    05:00 +13°C° 0 mm 0 mps 568 mmHg 91%
    06:00 +14°C° 0 mm 0 mps 569 mmHg 90%
    07:00 +14°C° 0 mm 0 mps 569 mmHg 88%
    08:00 +15°C° 0.3 mm 0 mps 570 mmHg 84%
    09:00 +19°C° 0.3 mm 1 mps 571 mmHg 80%
    10:00 +20°C° 0.3 mm 1 mps 572 mmHg 75%
    11:00 +21°C° 1.1 mm 1 mps 572 mmHg 75%
    12:00 +21°C° 1.1 mm 1 mps 571 mmHg 74%
    13:00 +22°C° 1.1 mm 1 mps 571 mmHg 74%
    14:00 +21°C° 1.8 mm 1 mps 570 mmHg 77%
    15:00 +20°C° 1.8 mm 1 mps 570 mmHg 81%
    16:00 +20°C° 1.8 mm 1 mps 569 mmHg 85%
    17:00 +18°C° 1.4 mm 1 mps 569 mmHg 89%
    18:00 +16°C° 1.4 mm 1 mps 569 mmHg 93%
    19:00 +14°C° 1.4 mm 0 mps 568 mmHg 97%
    20:00 +14°C° 0.6 mm 0 mps 569 mmHg 97%
    21:00 +14°C° 0.6 mm 0 mps 569 mmHg 97%
    22:00 +14°C° 0.6 mm 0 mps 570 mmHg 96%
    23:00 +14°C° 1 mm 0 mps 570 mmHg 97%

    2 April, Thursday

    Time Temperature Precipitation Wind Pressure Humidity
    00:00 +14°C° 1 mm 0 mps 569 mmHg 97%
    01:00 +14°C° 1 mm 0 mps 569 mmHg 97%
    02:00 +13°C° 0.6 mm 0 mps 569 mmHg 97%
    03:00 +13°C° 0.6 mm 0 mps 569 mmHg 97%
    04:00 +13°C° 0.6 mm 0 mps 569 mmHg 97%
    05:00 +13°C° 0.4 mm 0 mps 569 mmHg 97%
    06:00 +14°C° 0.4 mm 0 mps 570 mmHg 97%
    07:00 +15°C° 0.4 mm 1 mps 570 mmHg 97%
    08:00 +15°C° 0.5 mm 1 mps 571 mmHg 95%
    09:00 +16°C° 0.5 mm 1 mps 571 mmHg 93%
    10:00 +16°C° 0.5 mm 1 mps 572 mmHg 92%
    11:00 +18°C° 0.4 mm 1 mps 572 mmHg 86%
    12:00 +18°C° 0.4 mm 2 mps 572 mmHg 80%
    13:00 +19°C° 0.4 mm 2 mps 572 mmHg 75%
    14:00 +19°C° 0.3 mm 2 mps 571 mmHg 73%
    15:00 +19°C° 0.3 mm 2 mps 571 mmHg 72%
    16:00 +19°C° 0.3 mm 2 mps 570 mmHg 71%
    17:00 +18°C° 0.2 mm 1 mps 570 mmHg 79%
    18:00 +16°C° 0.2 mm 1 mps 569 mmHg 86%
    19:00 +14°C° 0.2 mm 1 mps 569 mmHg 93%
    20:00 +14°C° 0.1 mm 1 mps 569 mmHg 93%
    21:00 +14°C° 0.1 mm 1 mps 570 mmHg 92%
    22:00 +14°C° 0.1 mm 1 mps 570 mmHg 91%
    23:00 +13°C° 0 mm 1 mps 570 mmHg 91%

    3 April, Friday

    Time Temperature Precipitation Wind Pressure Humidity
    00:00 +13°C° 0 mm 1 mps 569 mmHg 91%
    01:00 +13°C° 0 mm 1 mps 569 mmHg 91%
    02:00 +12°C° 0 mm 1 mps 569 mmHg 91%
    03:00 +12°C° 0 mm 1 mps 568 mmHg 91%
    04:00 +12°C° 0 mm 1 mps 568 mmHg 91%
    05:00 +13°C° 0 mm 1 mps 569 mmHg 89%
    06:00 +13°C° 0 mm 0 mps 570 mmHg 87%
    07:00 +13°C° 0 mm 0 mps 571 mmHg 85%
    08:00 +16°C° 0 mm 1 mps 572 mmHg 78%
    09:00 +19°C° 0 mm 1 mps 573 mmHg 71%
    10:00 +20°C° 0 mm 2 mps 574 mmHg 63%
    11:00 +20°C° 0.4 mm 2 mps 573 mmHg 65%
    12:00 +21°C° 0.4 mm 2 mps 573 mmHg 66%
    13:00 +21°C° 0.4 mm 2 mps 572 mmHg 67%
    14:00 +20°C° 0.6 mm 2 mps 571 mmHg 70%
    15:00 +20°C° 0.6 mm 2 mps 571 mmHg 72%
    16:00 +20°C° 0.6 mm 2 mps 570 mmHg 75%
    17:00 +19°C° 0.5 mm 1 mps 570 mmHg 82%
    18:00 +16°C° 0.5 mm 1 mps 569 mmHg 89%
    19:00 +15°C° 0.5 mm 1 mps 569 mmHg 97%
    20:00 +15°C° 0.1 mm 1 mps 569 mmHg 96%
    21:00 +15°C° 0.1 mm 1 mps 570 mmHg 96%
    22:00 +14°C° 0.1 mm 1 mps 570 mmHg 96%
    23:00 +13°C° 0 mm 0 mps 570 mmHg 95%

    4 April, Saturday

    Time Temperature Precipitation Wind Pressure Humidity
    00:00 +13°C° 0 mm 0 mps 569 mmHg 94%
    01:00 +13°C° 0 mm 0 mps 569 mmHg 94%
    02:00 +13°C° 0 mm 0 mps 569 mmHg 94%
    03:00 +13°C° 0 mm 0 mps 569 mmHg 94%
    04:00 +13°C° 0 mm 0 mps 569 mmHg 94%
    05:00 +13°C° 0.2 mm 0 mps 569 mmHg 93%
    06:00 +13°C° 0.2 mm 0 mps 570 mmHg 93%
    07:00 +14°C° 0.2 mm 0 mps 570 mmHg 93%
    08:00 +14°C° 0.2 mm 0 mps 571 mmHg 90%
    09:00 +15°C° 0.2 mm 0 mps 571 mmHg 88%
    10:00 +18°C° 0.2 mm 1 mps 572 mmHg 85%
    11:00 +18°C° 0.9 mm 1 mps 571 mmHg 85%
    12:00 +17°C° 0.9 mm 2 mps 571 mmHg 86%
    13:00 +18°C° 0.9 mm 2 mps 570 mmHg 86%
    14:00 +17°C° 0.5 mm 2 mps 570 mmHg 87%
    15:00 +17°C° 0.5 mm 2 mps 569 mmHg 87%
    16:00 +18°C° 0.5 mm 1 mps 569 mmHg 87%
    17:00 +16°C° 0 mm 1 mps 568 mmHg 90%
    18:00 +15°C° 0 mm 1 mps 568 mmHg 93%
    19:00 +14°C° 0 mm 1 mps 568 mmHg 96%
    20:00 +14°C° 0 mm 1 mps 568 mmHg 95%
    21:00 +14°C° 0 mm 1 mps 569 mmHg 95%
    22:00 +14°C° 0 mm 1 mps 569 mmHg 95%
    23:00 +13°C° 0 mm 1 mps 569 mmHg 95%
    Show more